Regional Weather Roundup
Issued by NWS Albany, NY

Home | Current Version | Previous Version | Graphics & Text | Print | Product List | Glossary Off
Versions: 1 2 3 4 5 6 7 8 9 10 11 12 13 14 15 16 17 18 19 20 21 22 23 24 25 26 27

000
ASUS41 KALY 221510
RWRALY

NEW YORK STATE HOURLY WEATHER ROUNDUP
NATIONAL WEATHER SERVICE ALBANY NY
1100 AM EDT WED MAR 22 2017

NOTE: "FAIR" INDICATES FEW OR NO CLOUDS BELOW 12,000 FEET WITH NO
SIGNIFICANT WEATHER AND/OR NO OBSTRUCTIONS TO VISIBILITY.

NYZ032-033-038>043-046>054-057>066-NYZ062>081-082-084-221600-
EAST


CITY           SKY/WX    TMP DP  RH WIND       PRES   REMARKS
ALBANY         MOSUNNY   23   1  38 W23G33    30.17R WCI   7
GLENS FALLS    SUNNY     18  -6  34 NW25G33   30.18R WCI   0
POUGHKEEPSIE   SUNNY     28  -2  27 NW21G33   30.13R WCI  15
NEWBURGH       MOSUNNY   27   9  46 NW29G40   30.13R WCI  11
MONTGOMERY     SUNNY     27  -2  28 NW21G40   30.15R WCI  13
WHITE PLAINS   MOSUNNY   32   5  32 NW32G41   30.06R WCI  17
ISLIP          MOSUNNY   38  11  32 NW28G41   30.03R WCI  26
NEW YORK CITY  MOSUNNY   37   9  31 NW24G43   30.11R WCI  26
CENTRAL PARK   SUNNY     33   7  33 NW16G31   30.13R WCI  23
$$

NYZ005>009-017-018-044>046-055-056-221600-
CENTRAL


CITY           SKY/WX    TMP DP  RH WIND       PRES   REMARKS
SYRACUSE       LGT SNOW  16   8  71 NW17      30.37R BLWGSNOWWCI   0
ROME           SUNNY     15  -2  46 NW20G36   30.33R WCI  -2
ELMIRA         CLOUDY    23   3  42 NW16G25   30.31R WCI  10
BINGHAMTON     MOSUNNY   16   0  49 N22G35    30.19R WCI  -2
MONTICELLO     SUNNY     19   1  45 NW24G39   30.12R WCI   2
$$

NYZ026>034-041>043-087-221600-
NORTH


CITY           SKY/WX    TMP DP  RH WIND       PRES   REMARKS
WATERTOWN      PTSUNNY   15  -2  46 N10       30.40R WCI   2
FORT DRUM      NOT AVBL
MASSENA        NOT AVBL
SARANAC LAKE   MOSUNNY    6  -8  52 N9G16     30.14R WCI  -8
PLATTSBURGH    PTSUNNY   13  -6  42 NW21G33   30.25R WCI  -5
$$

NYZ001>004-010>016-019>021-085-221600-
WEST


CITY           SKY/WX    TMP DP  RH WIND       PRES   REMARKS
NIAGARA FALLS  SUNNY     23   0  36 N17       30.48R WCI   9
BUFFALO        MOSUNNY   21   4  47 N12G22    30.45R WCI   9
DUNKIRK        MOSUNNY   23   8  52 N14       30.49R WCI  11
JAMESTOWN      MOSUNNY   19   5  53 NW12G22   30.36R WCI   7
WELLSVILLE     SUNNY     19   0  43 N18G29    30.28R WCI   4
ROCHESTER      MOSUNNY   20   3  48 N18G25    30.43R WCI   5
PENN YAN       FLURRIES  20   9  62 NW12G28   30.35R WCI   8
$$

             KEY
       WCI = WIND CHILL INDEX
       VSB = VISIBILITY
       HX  = HEAT INDEX
$$




USA.gov is the U.S. government's official web portal to all federal, state and local government web resources and services.